User: anonymous   Login
Location: Unspecified
(0.0000°N, 0.0000°E)
Time: 06:17:01
(UTC+00:00)
Language:

Sapphire - Orbit

View from above orbital plane
View from above orbital plane
View from above satellite
View from above satellite

Ground track
Ground track

The orbit data is extracted from the following two-line orbital elements,

1 26932U 01043D   18116.14451044 -.00000044  00000-0  14916-4 0  9994
2 26932  67.0577   6.4814 0006002 293.9282  66.1190 14.30278108865121
Epoch (UTC): 26 April 2018 03:28:05
Eccentricity: 0.0006002
inclination: 67.0577°
perigee height: 786 km
apogee height: 795 km
right ascension of ascending node: 6.4814°
argument of perigee: 293.9282°
revolutions per day: 14.30278108
mean anomaly at epoch: 66.1190°
orbit number at epoch: 86512

The dashed part of the orbit path shows where the satellite is in the earth's shadow,  

DLR